| time (UTC) | temp F | wind direction | speed MPH | gust MPH | rain 1hr in | rain 24hr in | rain mn in | humidity % | barometer mb |
| 20260901091523 | 59 | 154 | 0.0 | 0.0 | 0.00 | 0.00 | 0.00 | 3 | 1012.5 |
| 20260901090016 | 59 | 233 | 0.0 | 0.0 | 0.00 | 0.00 | 0.00 | 3 | 1012.4 |
| 20260901084511 | 59 | 152 | 0.0 | 0.0 | 0.00 | 0.00 | 0.00 | 3 | 1012.4 |
| 20260901083019 | 60 | 118 | 0.0 | 0.0 | 0.00 | 0.00 | 0.00 | 3 | 1012.4 |
| 20260901081502 | 60 | 200 | 0.0 | 0.0 | 0.00 | 0.00 | 0.00 | 3 | 1012.4 |
| 20260901080059 | 60 | 195 | 0.0 | 0.0 | 0.00 | 0.00 | 0.00 | 3 | 1012.4 |
| 20260901074554 | 61 | 205 | 0.0 | 0.0 | 0.00 | 0.00 | 0.00 | 3 | 1012.2 |
| 20260901073049 | 61 | 224 | 0.0 | 0.0 | 0.00 | 0.00 | 0.00 | 3 | 1012.2 |
| 20260901071529 | 61 | 193 | 0.0 | 0.0 | 0.00 | 0.00 | 0.00 | 3 | 1012.1 |
| 20260901070027 | 62 | 152 | 0.0 | 0.0 | 0.00 | 0.00 | 0.00 | 3 | 1012.1 |
| 20260901064505 | 62 | 180 | 0.0 | 0.0 | 0.00 | 0.00 | 0.00 | 3 | 1012.2 |
| 20260901063059 | 63 | 242 | 0.0 | 0.0 | 0.00 | 0.00 | 0.00 | 3 | 1012.2 |
| 20260901061541 | 63 | 221 | 0.0 | 0.0 | 0.00 | 0.00 | 0.00 | 3 | 1012.2 |
| 20260901060040 | 63 | 172 | 0.0 | 0.0 | 0.00 | 0.00 | 0.00 | 3 | 1012.2 |
| 20260901054523 | 64 | 200 | 0.0 | 0.0 | 0.00 | 0.00 | 0.00 | 3 | 1012.3 |
| 20260901053018 | 64 | 214 | 0.0 | 0.0 | 0.00 | 0.00 | 0.00 | 3 | 1012.3 |
| 20260901051608 | 65 | 198 | 0.0 | 0.0 | 0.00 | 0.00 | 0.00 | 3 | 1012.3 |
| 20260901050057 | 65 | 202 | 0.0 | 0.0 | 0.00 | 0.00 | 0.00 | 3 | 1012.4 |
| 20260901044541 | 65 | 194 | 0.0 | 0.0 | 0.00 | 0.00 | 0.00 | 3 | 1012.3 |
| 20260901043031 | 66 | 212 | 0.0 | 0.0 | 0.00 | 0.00 | 0.00 | 3 | 1012.3 |
| 20260901041510 | 66 | 217 | 0.0 | 0.0 | 0.00 | 0.00 | 0.00 | 3 | 1012.2 |
| 20260901040009 | 66 | 236 | 0.0 | 1.0 | 0.00 | 0.00 | 0.00 | 3 | 1012.1 |
| 20260901034545 | 66 | 162 | 0.0 | 2.0 | 0.00 | 0.00 | 0.00 | 3 | 1011.9 |
| 20260901033041 | 65 | 188 | 0.0 | 0.0 | 0.00 | 0.00 | 0.00 | 3 | 1011.7 |
| 20260901031525 | 65 | 205 | 0.0 | 3.0 | 0.00 | 0.00 | 0.00 | 3 | 1011.7 |
| 20260901030020 | 65 | 233 | 0.0 | 0.0 | 0.00 | 0.00 | 0.00 | 9 | 1011.5 |
| 20260901024516 | 65 | 236 | 0.0 | 7.0 | 0.00 | 0.00 | 0.00 | 24 | 1011.5 |
| 20260901023026 | 65 | 221 | 0.0 | 4.0 | 0.00 | 0.00 | 0.00 | 39 | 1011.4 |
| 20260901021514 | 66 | 201 | 0.0 | 5.0 | 0.00 | 0.00 | 0.00 | 51 | 1011.3 |
| 20260901020002 | 66 | 194 | 0.0 | 7.0 | 0.00 | 0.00 | 0.00 | 57 | 1011.3 |
| 20260901014557 | 67 | 219 | 1.0 | 11.0 | 0.00 | 0.00 | 0.00 | 60 | 1011.3 |
| 20260901013101 | 67 | 212 | 0.0 | 4.0 | 0.00 | 0.00 | 0.00 | 60 | 1011.2 |
| 20260901011534 | 68 | 198 | 0.0 | 5.0 | 0.00 | 0.00 | 0.00 | 60 | 1011.2 |
| 20260901010030 | 68 | 231 | 0.0 | 11.0 | 0.00 | 0.00 | 0.00 | 60 | 1011.0 |
| 20260901004508 | 69 | 186 | 1.0 | 6.0 | 0.00 | 0.00 | 0.00 | 59 | 1011.0 |
| 20260901003004 | 70 | 180 | 0.0 | 10.0 | 0.00 | 0.00 | 0.00 | 59 | 1011.1 |
| 20260901001542 | 71 | 186 | 2.0 | 8.0 | 0.00 | 0.00 | 0.00 | 58 | 1011.1 |
| 20260901000039 | 71 | 244 | 0.0 | 5.0 | 0.00 | 0.00 | 0.00 | 57 | 1010.9 |
| 20260831234516 | 72 | 217 | 0.0 | 5.0 | 0.00 | 0.00 | 0.00 | 57 | 1010.9 |
| 20260831233015 | 72 | 217 | 0.0 | 2.0 | 0.00 | 0.00 | 0.00 | 57 | 1011.1 |
| 20260831231551 | 71 | 208 | 1.0 | 9.0 | 0.00 | 0.00 | 0.00 | 57 | 1011.0 |
| 20260831230046 | 71 | 204 | 0.0 | 7.0 | 0.00 | 0.00 | 0.00 | 57 | 1011.2 |
| 20260831224523 | 71 | 252 | 0.0 | 11.0 | 0.00 | 0.00 | 0.00 | 57 | 1011.3 |
| 20260831223019 | 72 | 198 | 0.0 | 6.0 | 0.00 | 0.00 | 0.00 | 57 | 1011.5 |
| 20260831221556 | 71 | 179 | 1.0 | 10.0 | 0.00 | 0.00 | 0.00 | 57 | 1011.7 |
| 20260831220052 | 72 | 266 | 0.0 | 6.0 | 0.00 | 0.00 | 0.00 | 57 | 1011.9 |
| 20260831214529 | 72 | 240 | 0.0 | 9.0 | 0.00 | 0.00 | 0.00 | 56 | 1012.0 |
| 20260831213027 | 72 | 280 | 0.0 | 8.0 | 0.00 | 0.00 | 0.00 | 56 | 1012.0 |
| 20260831211515 | 73 | 284 | 0.0 | 7.0 | 0.00 | 0.00 | 0.00 | 55 | 1012.0 |
| 20260831210007 | 72 | 193 | 0.0 | 2.0 | 0.00 | 0.00 | 0.00 | 55 | 1012.3 |
| 20260831204600 | 71 | 153 | 0.0 | 7.0 | 0.00 | 0.00 | 0.00 | 55 | 1012.3 |
| 20260831203056 | 70 | 231 | 0.0 | 0.0 | 0.00 | 0.00 | 0.00 | 55 | 1012.4 |
| 20260831201550 | 68 | 149 | 0.0 | 5.0 | 0.00 | 0.00 | 0.00 | 55 | 1012.6 |
| 20260831200052 | 68 | 224 | 0.0 | 1.0 | 0.00 | 0.00 | 0.00 | 54 | 1012.7 |
| 20260831194600 | 67 | 217 | 0.0 | 3.0 | 0.00 | 0.00 | 0.00 | 53 | 1012.8 |
| 20260831193040 | 67 | 264 | 0.0 | 3.0 | 0.00 | 0.00 | 0.00 | 51 | 1012.9 |
| 20260831191516 | 66 | 134 | 0.0 | 1.0 | 0.00 | 0.00 | 0.00 | 49 | 1013.0 |
| 20260831190012 | 66 | 190 | 0.0 | 0.0 | 0.00 | 0.00 | 0.00 | 35 | 1013.1 |
| 20260831184609 | 64 | 218 | 0.0 | 0.0 | 0.00 | 0.00 | 0.00 | 27 | 1013.2 |
| 20260831183046 | 64 | 232 | 0.0 | 0.0 | 0.00 | 0.00 | 0.00 | 13 | 1013.3 |
| 20260831181542 | 65 | 267 | 0.0 | 0.0 | 0.00 | 0.00 | 0.00 | 3 | 1013.2 |
| 20260831180019 | 65 | 146 | 0.0 | 0.0 | 0.00 | 0.00 | 0.00 | 3 | 1013.2 |
| 20260831174515 | 64 | 91 | 0.0 | 0.0 | 0.00 | 0.00 | 0.00 | 3 | 1013.1 |
| 20260831173056 | 64 | 276 | 0.0 | 0.0 | 0.00 | 0.00 | 0.00 | 3 | 1013.1 |
| 20260831171549 | 63 | 226 | 0.0 | 0.0 | 0.00 | 0.00 | 0.00 | 3 | 1013.0 |
| 20260831170026 | 62 | 226 | 0.0 | 0.0 | 0.00 | 0.00 | 0.00 | 3 | 1012.8 |
| 20260831164523 | 62 | 266 | 0.0 | 0.0 | 0.00 | 0.00 | 0.00 | 3 | 1012.8 |
| 20260831163107 | 61 | 227 | 0.0 | 0.0 | 0.00 | 0.00 | 0.00 | 3 | 1012.7 |
| 20260831161556 | 60 | 81 | 0.0 | 0.0 | 0.00 | 0.00 | 0.00 | 3 | 1012.6 |
| 20260831160040 | 58 | 96 | 0.0 | 0.0 | 0.00 | 0.00 | 0.00 | 3 | 1012.6 |
| 20260831154531 | 58 | 41 | 0.0 | 0.0 | 0.00 | 0.00 | 0.00 | 3 | 1012.4 |
| 20260831153009 | 57 | 211 | 0.0 | 0.0 | 0.00 | 0.00 | 0.00 | 3 | 1012.5 |
| 20260831151504 | 57 | 231 | 0.0 | 0.0 | 0.00 | 0.00 | 0.00 | 3 | 1012.4 |
| 20260831150043 | 57 | 223 | 0.0 | 0.0 | 0.00 | 0.00 | 0.00 | 3 | 1012.2 |
| 20260831144538 | 0 | 0.0 | 0.0 | 0.00 | 0.00 | 0.00 | 1012.0 | ||
| 20260831143018 | 0 | 0.0 | 0.0 | 0.00 | 0.00 | 0.00 | 1011.8 | ||
| 20260831141512 | 0 | 0.0 | 0.0 | 0.00 | 0.00 | 0.00 | 1011.5 | ||
| 20260831140050 | 0 | 0.0 | 0.0 | 0.00 | 0.00 | 0.00 | 1011.5 | ||
| 20260831134546 | 0 | 0.0 | 0.0 | 0.00 | 0.00 | 0.00 | 1011.3 | ||
| 20260831133026 | 0 | 0.0 | 0.0 | 0.00 | 0.00 | 0.00 | 1011.3 | ||
| 20260831131621 | 0 | 0.0 | 0.0 | 0.00 | 0.00 | 0.00 | 1011.3 | ||
| 20260831130113 | 0 | 0.0 | 0.0 | 0.00 | 0.00 | 0.00 | 1011.3 | ||
| 20260831124557 | 0 | 0.0 | 0.0 | 0.00 | 0.00 | 0.00 | 1011.2 | ||
| 20260831123033 | 0 | 0.0 | 0.0 | 0.00 | 0.00 | 0.00 | 1011.2 | ||
| 20260831121531 | 0 | 0.0 | 0.0 | 0.00 | 0.00 | 0.00 | 1011.3 | ||
| 20260831120012 | 0 | 0.0 | 0.0 | 0.00 | 0.00 | 0.00 | 1011.4 | ||
| 20260831114508 | 0 | 0.0 | 0.0 | 0.00 | 0.00 | 0.00 | 1011.3 | ||
| 20260831113007 | 0 | 0.0 | 0.0 | 0.00 | 0.00 | 0.00 | 1011.1 | ||
| 20260831111602 | 0 | 0.0 | 0.0 | 0.00 | 0.00 | 0.00 | 1011.1 | ||
| 20260831110100 | 0 | 0.0 | 0.0 | 0.00 | 0.00 | 0.00 | 1011.2 | ||
| 20260831104552 | 54 | 114 | 0.0 | 0.0 | 0.00 | 0.00 | 0.00 | 3 | 1011.1 |
| 20260831103046 | 54 | 115 | 0.0 | 0.0 | 0.00 | 0.00 | 0.00 | 3 | 1011.0 |
| 20260831101543 | 55 | 114 | 0.0 | 0.0 | 0.00 | 0.00 | 0.00 | 3 | 1010.9 |
| 20260831100022 | 55 | 115 | 0.0 | 0.0 | 0.00 | 0.00 | 0.00 | 3 | 1010.8 |
| 20260831094517 | 56 | 115 | 0.0 | 0.0 | 0.00 | 0.00 | 0.00 | 3 | 1010.8 |
| 20260831093055 | 56 | 113 | 0.0 | 0.0 | 0.00 | 0.00 | 0.00 | 3 | 1010.6 |